This is the latest recevied weather packets stored in our database for station/object KMASWX. If no packets are shown the sender has not sent any weather packets the latest 10 day(s).
| Time | Temp. | Humidity | Pressure | Rain* | Wind** | Luminosity | Snow |
|---|---|---|---|---|---|---|---|
| 1777849817 | 28.33° C | 16% | - | 0 mm | - | - | - |
| 1777849511 | 27.78° C | 16% | - | 0 mm | - | - | - |
| 1777849207 | 27.78° C | 16% | - | 0 mm | - | - | - |
| 1777848903 | 28.33° C | 16% | - | 0 mm | - | - | - |
| 1777848600 | 28.33° C | 17% | - | 0 mm | - | - | - |
| 1777848294 | 27.22° C | 16% | - | 0 mm | - | - | - |
| 1777847990 | 27.78° C | 17% | - | 0 mm | - | - | - |
| 1777847686 | 27.78° C | 18% | - | 0 mm | - | - | - |
| 1777847380 | 27.22° C | 17% | - | 0 mm | - | - | - |
| 1777847075 | 27.78° C | 19% | - | 0 mm | - | - | - |
| 1777846772 | 26.67° C | 17% | - | 0 mm | - | - | - |
| 1777846468 | 27.78° C | 19% | - | 0 mm | - | - | - |
| 1777845857 | 28.33° C | 20% | - | 0 mm | - | - | - |
| 1777845553 | 28.89° C | 19% | - | 0 mm | - | - | - |
| 1777845247 | 28.33° C | 20% | - | 0 mm | - | - | - |
| 1777844943 | 28.33° C | 20% | - | 0 mm | - | - | - |
| 1777844640 | 27.78° C | 22% | - | 0 mm | - | - | - |
| 1777844333 | 28.33° C | 19% | - | 0 mm | - | - | - |
| 1777844030 | 28.33° C | 20% | - | 0 mm | - | - | - |
| 1777843726 | 28.33° C | 22% | - | 0 mm | - | - | - |
| 1777843423 | 27.78° C | 22% | - | 0 mm | - | - | - |
| 1777843116 | 27.78° C | 23% | - | 0 mm | - | - | - |
| 1777842812 | 27.22° C | 21% | - | 0 mm | - | - | - |
| 1777842509 | 27.78° C | 21% | - | 0 mm | - | - | - |
| 1777842205 | 27.78° C | 22% | - | 0 mm | - | - | - |
* Rain latest 24 hours (hover to see other rain measurements)
** Current wind speed in m/s (hover to see current wind gust speed)